Change the Weather History Date:

Thursday, April 11, 2013

  Actual Average (KDBQ) Record (KDBQ)
Temperature  
Mean Temperature 38 °F 46 °F  
Max Temperature 41 °F 57 °F 81 °F (1977)
Min Temperature 35 °F 36 °F 11 °F (1973)
Degree Days  
Heating Degree Days 27 19  
Month to date heating degree days 227  
Since 1 July heating degree days 6538  
Cooling Degree Days 0 0  
Month to date cooling degree days 0  
Year to date cooling degree days 0  
Moisture  
Dew Point 35 °F    
Average Humidity 91    
Maximum Humidity 93    
Minimum Humidity 87    
Precipitation  
Precipitation 0.09 in 0.12 in 1.11 in (2007)
Month to date precipitation 1.22  
Year to date precipitation 6.24  
Snow  
Snow 0.00 in 0.00 in - ()
Month to date snowfall 1.1  
Since 1 July snowfall 41.0  
Snow Depth -    
Sea Level Pressure  
Sea Level Pressure 29.64 in    
Wind  
Wind Speed 20 mph (East)    
Max Wind Speed 29 mph    
Max Gust Speed 34 mph    
Visibility 5 miles    
Events      
T = Trace of Precipitation, MM = Missing Value Source: NWS Daily Summary

Daily Weather History Graph

Daily Weather History Graph

Search for Another Location

Airport or City:

Trip Planner

Search our weather history database for the weather conditions in past years. The results will help you decide how hot, cold, wet, or windy it might be!

Date:

Astronomy

Apr. 11, 2013 Rise Set
Actual Time 6:26 AM CDT 7:39 PM CDT
Civil Twilight 5:57 AM CDT 8:08 PM CDT
Nautical Twilight 5:22 AM CDT 8:43 PM CDT
Astronomical Twilight 4:45 AM CDT 9:20 PM CDT
Moon 6:56 AM CDT (4/11) 9:16 PM CDT (4/11)
Length of Visible Light 14h 11m
Length of Day
13h 13m
New Moon, 2% of the Moon is Illuminated
Apr 11
New Moon
Apr 18
First Quarter
Apr 25
Full
May 2
Last Quarter
May 9
New

Hourly Weather History & Observations

Time (CDT) Temp. Windchill Dew Point Humidity Pressure Visibility Wind Dir Wind Speed Gust Speed Precip Events Conditions
12:15 AM 35.6 °F 22.7 °F 33.8 °F 93% 29.76 in 10.0 mi ENE 28.8 mph 34.5 mph N/A   Overcast
12:35 AM 35.6 °F 23.2 °F 33.8 °F 93% 29.76 in 10.0 mi East 26.5 mph 33.4 mph N/A   Overcast
12:55 AM 35.6 °F 24.0 °F 33.8 °F 93% 29.76 in 10.0 mi East 23.0 mph 33.4 mph N/A   Overcast
1:15 AM 37.4 °F 25.9 °F 33.8 °F 87% 29.75 in 10.0 mi ENE 25.3 mph 28.8 mph N/A   Overcast
1:35 AM 37.4 °F 26.1 °F 33.8 °F 87% 29.74 in 5.0 mi East 24.2 mph 31.1 mph N/A   Overcast
1:55 AM 35.6 °F 23.4 °F 33.8 °F 93% 29.73 in 5.0 mi East 25.3 mph 33.4 mph N/A   Overcast
2:15 AM 37.4 °F 25.9 °F 33.8 °F 87% 29.72 in 10.0 mi East 25.3 mph 33.4 mph N/A   Overcast
2:35 AM 37.4 °F 26.1 °F 33.8 °F 87% 29.71 in 10.0 mi East 24.2 mph 32.2 mph N/A   Overcast
2:55 AM 37.4 °F 25.9 °F 33.8 °F 87% 29.70 in 10.0 mi East 25.3 mph 31.1 mph N/A   Overcast
3:15 AM 37.4 °F 26.6 °F 33.8 °F 87% 29.70 in 5.0 mi East 21.9 mph 27.6 mph 0.01 in   Overcast
3:55 AM 35.6 °F 25.5 °F 33.8 °F 93% 29.70 in 2.5 mi East 17.3 mph 29.9 mph 0.03 in   Overcast
4:15 AM 35.6 °F 24.2 °F 33.8 °F 93% 29.67 in 5.0 mi East 21.9 mph 27.6 mph 0.01 in   Overcast
4:55 AM 35.6 °F 24.2 °F 33.8 °F 93% 29.67 in 5.0 mi East 21.9 mph 29.9 mph 0.01 in   Overcast
5:15 AM 35.6 °F 24.8 °F 33.8 °F 93% 29.67 in 2.0 mi East 19.6 mph 25.3 mph 0.02 in   Overcast
5:35 AM 35.6 °F 24.5 °F 33.8 °F 93% 29.66 in 3.0 mi East 20.7 mph 25.3 mph 0.04 in   Overcast
5:55 AM 35.6 °F 24.8 °F 33.8 °F 93% 29.66 in 4.0 mi East 19.6 mph 23.0 mph 0.04 in   Overcast
6:15 AM 35.6 °F 24.8 °F 33.8 °F 93% 29.67 in 5.0 mi East 19.6 mph 23.0 mph N/A   Overcast
6:35 AM 35.6 °F 26.6 °F 33.8 °F 93% 29.68 in 2.5 mi East 13.8 mph 21.9 mph 0.01 in   Overcast
6:55 AM 35.6 °F 27.5 °F 33.8 °F 93% 29.69 in 4.0 mi East 11.5 mph - 0.01 in   Overcast
7:15 AM 35.6 °F 26.6 °F 33.8 °F 93% 29.68 in 4.0 mi East 13.8 mph - N/A   Overcast
7:35 AM 35.6 °F 25.2 °F 33.8 °F 93% 29.65 in 7.0 mi East 18.4 mph 25.3 mph N/A   Overcast
7:55 AM 35.6 °F 25.9 °F 33.8 °F 93% 29.70 in 10.0 mi East 16.1 mph 21.9 mph N/A   Overcast
8:15 AM 35.6 °F 26.6 °F 33.8 °F 93% 29.68 in 10.0 mi East 13.8 mph - N/A   Overcast
8:35 AM 35.6 °F 24.8 °F 33.8 °F 93% 29.67 in 7.0 mi East 19.6 mph 23.0 mph N/A   Overcast
8:55 AM 35.6 °F 25.9 °F 33.8 °F 93% 29.67 in 4.0 mi East 16.1 mph - N/A   Overcast
9:15 AM 35.6 °F 25.5 °F 33.8 °F 93% 29.66 in 10.0 mi East 17.3 mph 21.9 mph N/A   Overcast
9:35 AM 37.4 °F 28.9 °F 33.8 °F 87% 29.66 in 3.0 mi East 13.8 mph 24.2 mph N/A   Overcast
9:55 AM 37.4 °F 28.2 °F 33.8 °F 87% 29.65 in 2.0 mi East 16.1 mph 25.3 mph N/A   Overcast
10:15 AM 37.4 °F 27.8 °F 35.6 °F 93% 29.65 in 0.8 mi East 17.3 mph 23.0 mph N/A   Overcast
10:35 AM 37.4 °F 27.8 °F 35.6 °F 93% 29.65 in 2.5 mi ENE 17.3 mph 23.0 mph N/A   Overcast
10:55 AM 37.4 °F 27.2 °F 35.6 °F 93% 29.64 in 4.0 mi ENE 19.6 mph 25.3 mph N/A   Overcast
11:15 AM 37.4 °F 26.4 °F 35.6 °F 93% 29.64 in 7.0 mi East 23.0 mph - N/A   Overcast
11:35 AM 39.2 °F 29.8 °F 35.6 °F 87% 29.65 in 4.0 mi East 18.4 mph 26.5 mph N/A   Overcast
11:55 AM 39.2 °F 30.2 °F 35.6 °F 87% 29.64 in 3.0 mi East 17.3 mph 25.3 mph N/A   Overcast
12:15 PM 39.2 °F 29.8 °F 35.6 °F 87% 29.62 in 3.0 mi East 18.4 mph 26.5 mph N/A   Overcast
12:35 PM 39.2 °F 29.6 °F 35.6 °F 87% 29.63 in 3.0 mi East 19.6 mph - N/A   Overcast
12:55 PM 41.0 °F 32.5 °F 37.4 °F 87% 29.63 in 7.0 mi East 17.3 mph - N/A   Overcast
1:15 PM 39.2 °F 30.2 °F 35.6 °F 87% 29.62 in 5.0 mi East 17.3 mph - N/A   Overcast
1:35 PM 39.2 °F 30.5 °F 37.4 °F 93% 29.62 in 2.5 mi East 16.1 mph 20.7 mph N/A   Overcast
1:55 PM 41.0 °F 33.1 °F 37.4 °F 87% 29.61 in 3.0 mi East 15.0 mph - N/A   Overcast
2:15 PM 41.0 °F 32.2 °F 37.4 °F 87% 29.60 in 1.8 mi ENE 18.4 mph 21.9 mph N/A   Overcast
2:35 PM 41.0 °F 32.8 °F 37.4 °F 87% 29.60 in 2.5 mi ENE 16.1 mph - N/A   Overcast
2:55 PM 41.0 °F 32.8 °F 37.4 °F 87% 29.60 in 5.0 mi ENE 16.1 mph 21.9 mph N/A   Overcast
3:15 PM 41.0 °F 32.8 °F 37.4 °F 87% 29.60 in 5.0 mi East 16.1 mph - N/A   Overcast
3:35 PM 41.0 °F 32.8 °F 37.4 °F 87% 29.60 in 4.0 mi ENE 16.1 mph - N/A   Overcast
3:55 PM 41.0 °F 32.8 °F 37.4 °F 87% 29.59 in 3.0 mi East 16.1 mph - N/A   Overcast
4:15 PM 41.0 °F 33.9 °F 37.4 °F 87% 29.60 in 4.0 mi East 12.7 mph - N/A   Overcast
4:35 PM 41.0 °F 33.9 °F 37.4 °F 87% 29.60 in 2.5 mi East 12.7 mph 17.3 mph N/A   Overcast
4:55 PM 41.0 °F 33.9 °F 37.4 °F 87% 29.60 in 1.8 mi ENE 12.7 mph - N/A   Overcast
5:15 PM 41.0 °F 33.1 °F 37.4 °F 87% 29.59 in 1.8 mi ENE 15.0 mph - N/A   Overcast
5:35 PM 41.0 °F 33.1 °F 37.4 °F 87% 29.58 in 2.0 mi ENE 15.0 mph - N/A   Overcast
5:55 PM 41.0 °F 33.9 °F 37.4 °F 87% 29.57 in 5.0 mi ENE 12.7 mph - N/A   Overcast
6:35 PM 39.2 °F 29.8 °F 37.4 °F 93% 29.57 in 3.0 mi ENE 18.4 mph - N/A   Overcast
6:55 PM 37.4 °F 27.5 °F 35.6 °F 93% 29.56 in 2.0 mi ENE 18.4 mph - N/A   Overcast
7:15 PM 37.4 °F 28.2 °F 35.6 °F 93% 29.56 in 4.0 mi ENE 16.1 mph - N/A   Overcast
7:35 PM 37.4 °F 28.2 °F 35.6 °F 93% 29.56 in 4.0 mi ENE 16.1 mph 23.0 mph N/A   Overcast
7:55 PM 37.4 °F 28.5 °F 35.6 °F 93% 29.56 in 7.0 mi East 15.0 mph - N/A   Overcast
8:15 PM 37.4 °F 28.5 °F 35.6 °F 93% 29.57 in 7.0 mi East 15.0 mph 20.7 mph N/A   Overcast
8:35 PM 37.4 °F 29.8 °F 35.6 °F 93% 29.57 in 4.0 mi East 11.5 mph - N/A   Overcast
9:15 PM 37.4 °F 30.3 °F 35.6 °F 93% 29.55 in 5.0 mi East 10.4 mph - N/A   Overcast
9:35 PM 37.4 °F 30.8 °F 35.6 °F 93% 29.56 in 3.0 mi East 9.2 mph - N/A   Overcast
9:55 PM 37.4 °F 34.9 °F 35.6 °F 93% 29.56 in 4.0 mi SE 3.5 mph - N/A   Overcast
10:15 PM 37.4 °F 33.8 °F 35.6 °F 93% 29.57 in 7.0 mi East 4.6 mph - N/A   Overcast
10:35 PM 37.4 °F 28.2 °F 35.6 °F 93% 29.57 in 4.0 mi SW 16.1 mph - N/A   Overcast
10:55 PM 37.4 °F 28.2 °F 35.6 °F 93% 29.57 in 2.5 mi SW 16.1 mph 19.6 mph N/A   Overcast
11:15 PM 35.6 °F 27.5 °F 33.8 °F 93% 29.57 in 5.0 mi WSW 11.5 mph - N/A   Overcast
11:35 PM 35.6 °F 28.0 °F 33.8 °F 93% 29.57 in 10.0 mi WSW 10.4 mph - N/A   Overcast
11:55 PM 35.6 °F 28.6 °F 33.8 °F 93% 29.57 in 10.0 mi WSW 9.2 mph - N/A   Overcast